Simultaneous Nadir Overpasses (SNOs) Predictions

Prediction of SNOs between GOES-16 and METOP-C Satellite Orbit:

Table of predicted SNOs for the next 14.0 days since TLE Epoch: 10/31/2020
Index Date Time (GOES-16) GOES-16 Lat,Lon METOP-C Lat,Lon Distance(km) Time Diff (sec)
1 10/31/2020 14:36:06 -0.04, -75.18 0.23, -76.47 146.32 80
2 11/01/2020 14:15:28 -0.04, -75.18 -0.90, -71.48 422.84 80
3 11/03/2020 02:37:08 0.04, -75.15 -0.15, -76.06 103.36 80
4 11/04/2020 02:13:50 0.03, -75.16 0.97, -71.07 465.93 80
5 11/05/2020 14:32:43 -0.03, -75.19 0.06, -75.64 50.62 80
6 11/08/2020 02:33:45 0.02, -75.17 0.03, -75.23 7.05 80
7 11/10/2020 14:32:00 -0.01, -75.22 -0.12, -74.80 47.21 80
8 11/12/2020 02:51:00 0.01, -75.20 -0.91, -79.39 477.35 80
9 11/13/2020 02:27:41 0.01, -75.21 0.22, -74.40 92.87 80
